Regional Weather Roundup
Issued by NWS Little Rock, AR

Home | Current Version | Previous Version | Graphics & Text | Print | Product List | Glossary On
Versions: 1 2 3 4 5 6 7 8 9 10 11 12 13 14 15 16 17 18 19 20 21 22 23 24 25 26 27 28 29 30 31 32 33 34 35 36 37 38 39 40 41 42 43 44 45 46 47 48 49 50
000
ASUS44 KLZK 241805
RWRLZK

WEATHER ROUNDUP FOR ARKANSAS
NATIONAL WEATHER SERVICE LITTLE ROCK AR
100 PM CDT FRI APR 24 2015

NOTE: "FAIR" INDICATES FEW OR NO CLOUDS BELOW 12,000 FEET WITH NO
SIGNIFICANT WEATHER AND/OR OBSTRUCTIONS TO VISIBILITY.

ARZ001-003-010-029-241900-
NORTHWEST ARKANSAS

CITY           SKY/WX    TMP DP  RH WIND       PRES   REMARKS
FAYETTEVILLE   PTSUNNY   65  55  70 S12       29.83F
6HR MIN TEMP:  53; 6HR MAX TEMP:  67;

FORT SMITH     CLOUDY    62  51  67 NE12      29.85F
6HR MIN TEMP:  56; 6HR MAX TEMP:  62;

HARRISON       CLOUDY    56  50  80 SE12      29.89F
6HR MIN TEMP:  46; 6HR MAX TEMP:  56; 6HR PCP:  0.48;

BENTONVILLE    MOSUNNY   70  54  56 S13       29.82F
6HR MIN TEMP:  52; 6HR MAX TEMP:  70; 6HR PCP:  0.01;

ROGERS         MOSUNNY   70  56  61 S16G23    29.82F
6HR MIN TEMP:  50; 6HR MAX TEMP:  71;

SILOAM SPGS    MOSUNNY   68  54  60 S14G22    29.82F
6HR MIN TEMP:  54; 6HR MAX TEMP:  70;

HIGHFILL       MOSUNNY   69  55  60 S16G25    29.80F
6HR MIN TEMP:  52; 6HR MAX TEMP:  70;

SPRINGDALE     MOSUNNY   70  57  64 S12G23    29.84F
$$

ARZ004-005-016-241900-
NORTH CENTRAL ARKANSAS

CITY           SKY/WX    TMP DP  RH WIND       PRES   REMARKS
BATESVILLE     CLOUDY    55  52  88 SE6       29.98F
6HR MIN TEMP:  54; 6HR MAX TEMP:  57; 6HR PCP:  0.18;

FLIPPIN        CLOUDY    54  48  82 E6        29.93F
6HR MIN TEMP:  48; 6HR MAX TEMP:  54; 6HR PCP:  0.35;

MTN HOME       CLOUDY    53  47  79 SE10      29.93F
6HR MIN TEMP:  46; 6HR MAX TEMP:  54; 6HR PCP:  0.63;

$$

ARZ040-041-241900-
WEST CENTRAL ARKANSAS

CITY           SKY/WX    TMP DP  RH WIND       PRES   REMARKS
MENA           CLOUDY    59  59 100 NE5       29.90F
MOUNT IDA      RAIN      60  58  92 CALM      29.90F FOG
6HR MIN TEMP:  55; 6HR MAX TEMP:  61; 6HR PCP:  0.14;

$$

ARZ009-017-025-026-028-241900-
NORTHEAST ARKANSAS

CITY           SKY/WX    TMP DP  RH WIND       PRES   REMARKS
CORNING        LGT RAIN  50  48  93 NE8       30.01F
JONESBORO      CLOUDY    55  51  86 NE6       29.99F
6HR MIN TEMP:  53; 6HR MAX TEMP:  61; 6HR PCP:  0.09;

NEWPORT        CLOUDY    57  50  78 E9        30.01F
6HR MIN TEMP:  55; 6HR MAX TEMP:  61; 6HR PCP:  0.07;

WALNUT RIDGE   CLOUDY    52  45  76 E10       29.99F
6HR MIN TEMP:  50; 6HR MAX TEMP:  57; 6HR PCP:  0.24;

BLYTHEVILLE    LGT RAIN  56  51  84 N10       30.03R
6HR MIN TEMP:  53; 6HR MAX TEMP:  63; 6HR PCP:  0.01;

$$

ARZ022-023-033-042-044-241900-
CENTRAL ARKANSAS

CITY           SKY/WX    TMP DP  RH WIND       PRES   REMARKS
LITTLE ROCK    LGT RAIN  58  54  86 S5        29.96F FOG
6HR MIN TEMP:  56; 6HR MAX TEMP:  59; 6HR PCP:  0.22;

N LITTLE ROCK  CLOUDY    56  56  99 S8        29.96F
6HR MIN TEMP:  54; 6HR MAX TEMP:  58;

JACKSONVILLE   LGT RAIN  57  55  93 SE5       29.95F
6HR MIN TEMP:  53; 6HR MAX TEMP:  58; 6HR PCP:  0.18;

SEARCY         LGT RAIN  57  53  86 E6        30.00R
6HR MIN TEMP:  54; 6HR MAX TEMP:  58; 6HR PCP:  0.15;

HOT SPRINGS    LGT RAIN  58  56  93 E6        29.92F FOG
6HR MIN TEMP:  55; 6HR MAX TEMP:  58; 6HR PCP:  0.36;

RUSSELLVILLE   CLOUDY    57  54  89 E7        29.92F
6HR MIN TEMP:  53; 6HR MAX TEMP:  58; 6HR PCP:  0.03;

CLINTON          N/A    N/A N/A N/A MISG        N/A
$$

ARZ036-241900-
EAST ARKANSAS

CITY           SKY/WX    TMP DP  RH WIND       PRES   REMARKS
WEST MEMPHIS   LGT RAIN  63  46  54 VRB7      30.00R
6HR MIN TEMP:  56; 6HR MAX TEMP:  64; 6HR PCP: TRACE;

$$

ARZ050-053-066-070-073-241900-
SOUTHWEST ARKANSAS

CITY           SKY/WX    TMP DP  RH WIND       PRES   REMARKS
ARKADELPHIA    LGT RAIN  60  60 100 E3        29.93F FOG
6HR MIN TEMP:  56; 6HR MAX TEMP:  60; 6HR PCP:  0.95;

CAMDEN         RAIN      57  55  94 CALM      29.95F
TEXARKANA      CLOUDY    60  59  96 E3        29.90F FOG
6HR MIN TEMP:  56; 6HR MAX TEMP:  60; 6HR PCP:  0.49;

EL DORADO      CLOUDY    59  58  96 NE8       29.93F
6HR MIN TEMP:  57; 6HR MAX TEMP:  60;

DE QUEEN       CLOUDY    59  58  96 E3        29.89F
6HR MIN TEMP:  56; 6HR MAX TEMP:  59; 6HR PCP:  0.03;

$$

ARZ056-057-069-241900-
SOUTHEAST ARKANSAS

CITY           SKY/WX    TMP DP  RH WIND       PRES   REMARKS
PINE BLUFF     RAIN      57  56  96 E8        29.95F FOG
6HR MIN TEMP:  56; 6HR MAX TEMP:  58; 6HR PCP:  0.23;

STUTTGART      CLOUDY    59  52  77 S16       29.99F
6HR MIN TEMP:  55; 6HR MAX TEMP:  61; 6HR PCP:  0.02;

MONTICELLO     LGT RAIN  59  57  93 CALM      29.96F FOG
6HR MIN TEMP:  58; 6HR MAX TEMP:  60; 6HR PCP:  0.13;


$$




USA.gov is the U.S. government's official web portal to all federal, state and local government web resources and services.